TimeMDT,TemperatureF,Dew PointF,Humidity,Sea Level PressureIn,VisibilityMPH,Wind Direction,Wind SpeedMPH,Gust SpeedMPH,PrecipitationIn,Events,Conditions,WindDirDegrees,DateUTC
12:48 AM,59.0,48.0,67,30.04,-9999.0,Calm,Calm,-,N/A,,Unknown,0,2013-07-19 06:48:00
1:48 AM,57.0,48.0,72,30.05,-9999.0,WNW,3.5,-,N/A,,Unknown,290,2013-07-19 07:48:00
2:48 AM,55.0,48.9,80,30.04,-9999.0,West,4.6,-,N/A,,Unknown,260,2013-07-19 08:48:00
3:48 AM,55.0,48.9,80,30.04,-9999.0,Calm,Calm,-,N/A,,Unknown,0,2013-07-19 09:48:00
4:48 AM,55.0,48.9,80,30.04,-9999.0,WNW,8.1,-,N/A,,Unknown,290,2013-07-19 10:48:00
5:48 AM,53.1,48.9,86,30.04,-9999.0,Calm,Calm,-,N/A,,Unknown,0,2013-07-19 11:48:00
6:48 AM,57.9,51.1,78,30.03,-9999.0,Calm,Calm,-,N/A,,Unknown,0,2013-07-19 12:48:00
7:48 AM,64.9,53.1,65,30.03,-9999.0,West,3.5,-,N/A,,Unknown,270,2013-07-19 13:48:00
8:48 AM,73.0,53.1,49,30.02,-9999.0,WNW,3.5,-,N/A,,Unknown,290,2013-07-19 14:48:00
9:48 AM,78.1,50.0,37,30.01,-9999.0,Calm,Calm,-,N/A,,Unknown,0,2013-07-19 15:48:00
10:48 AM,81.0,48.0,31,30.00,-9999.0,Calm,Calm,-,N/A,,Unknown,0,2013-07-19 16:48:00
11:48 AM,84.0,46.9,27,29.99,-9999.0,WNW,8.1,-,N/A,,Unknown,300,2013-07-19 17:48:00
12:48 PM,87.1,44.1,22,29.96,-9999.0,West,9.2,-,N/A,,Unknown,260,2013-07-19 18:48:00
1:48 PM,88.0,43.0,21,29.95,-9999.0,WNW,6.9,-,N/A,,Unknown,290,2013-07-19 19:48:00
2:48 PM,90.0,45.0,21,29.93,-9999.0,Variable,4.6,-,N/A,,Unknown,0,2013-07-19 20:48:00
3:48 PM,87.1,44.1,22,29.91,-9999.0,Variable,4.6,-,N/A,,Unknown,0,2013-07-19 21:48:00
4:48 PM,91.0,45.0,20,29.89,-9999.0,North,6.9,-,N/A,,Unknown,10,2013-07-19 22:48:00
5:48 PM,91.0,44.1,20,29.88,-9999.0,NNE,5.8,-,N/A,,Unknown,30,2013-07-19 23:48:00
6:48 PM,90.0,44.1,20,29.86,-9999.0,NE,5.8,-,N/A,,Unknown,40,2013-07-20 00:48:00
7:48 PM,87.1,48.0,26,29.85,-9999.0,NE,5.8,-,N/A,,Unknown,40,2013-07-20 01:48:00
8:48 PM,80.1,51.1,36,29.87,-9999.0,ESE,3.5,-,N/A,,Unknown,110,2013-07-20 02:48:00
9:48 PM,71.1,51.1,49,29.89,-9999.0,Calm,Calm,-,N/A,,Unknown,0,2013-07-20 03:48:00
10:48 PM,70.0,51.1,51,29.90,-9999.0,Calm,Calm,-,N/A,,Unknown,0,2013-07-20 04:48:00
11:35 PM,73.4,50.0,44,29.97,-9999.0,ENE,17.3,23.0,N/A,,Unknown,60,2013-07-20 05:35:00
11:48 PM,73.0,51.1,46,29.92,-9999.0,East,15.0,-,N/A,,Unknown,80,2013-07-20 05:48:00